Lake Marion Weather Center

Moon Phase Calendar



Lake Marion Water Level
Online Cameras

 


      

Current Conditions in Holly Hill
2/22/2024 2:41:33 AM

34°F
Feels Like 34
Clear
Humidity
93%
Pressure
30.18"
Wind
0
Dew Point
32°F
UV Index
0/10 (Low)
Visibility
6 mi

Hourly Forecast

Date & Time Thu, Feb 22
2:00 AM
Thu, Feb 22
3:00 AM
Thu, Feb 22
4:00 AM
Thu, Feb 22
5:00 AM
Thu, Feb 22
6:00 AM
Thu, Feb 22
7:00 AM
Thu, Feb 22
8:00 AM
Thu, Feb 22
9:00 AM
Thu, Feb 22
10:00 AM
Thu, Feb 22
11:00 AM
Thu, Feb 22
12:00 PM
Thu, Feb 22
1:00 PM
Thu, Feb 22
2:00 PM
Thu, Feb 22
3:00 PM
Thu, Feb 22
4:00 PM
Thu, Feb 22
5:00 PM
Thu, Feb 22
6:00 PM
Thu, Feb 22
7:00 PM
Thu, Feb 22
8:00 PM
Thu, Feb 22
9:00 PM
Thu, Feb 22
10:00 PM
Thu, Feb 22
11:00 PM
Fri, Feb 23
12:00 AM
Fri, Feb 23
1:00 AM
Fri, Feb 23
2:00 AM
Fri, Feb 23
3:00 AM
Fri, Feb 23
4:00 AM
Fri, Feb 23
5:00 AM
Fri, Feb 23
6:00 AM
Fri, Feb 23
7:00 AM
Fri, Feb 23
8:00 AM
Fri, Feb 23
9:00 AM
Fri, Feb 23
10:00 AM
Fri, Feb 23
11:00 AM
Fri, Feb 23
12:00 PM
Fri, Feb 23
1:00 PM
Fri, Feb 23
2:00 PM
Fri, Feb 23
3:00 PM
Fri, Feb 23
4:00 PM
Fri, Feb 23
5:00 PM
Fri, Feb 23
6:00 PM
Fri, Feb 23
7:00 PM
Fri, Feb 23
8:00 PM
Fri, Feb 23
9:00 PM
Fri, Feb 23
10:00 PM
Fri, Feb 23
11:00 PM
Sat, Feb 24
12:00 AM
Sat, Feb 24
1:00 AM
Condition
Clear

Clear

Clear

Clear

Clear

Clear

Clear

Clouds

Clouds

Clouds

Clouds

Clouds

Clouds

Clouds

Clouds

Clouds

Clouds

Clouds

Clouds

Clouds

Clouds

Clouds

Clouds

Clouds

Clouds

Clouds

Clouds

Clouds

Clouds

Rain

Rain

Rain

Clouds

Clouds

Rain

Rain

Rain

Rain

Rain

Rain

Rain

Rain

Clouds

Clouds

Clouds

Clouds

Clouds

Clouds
Temperature 37°F34°F37°F39°F42°F44°F48°F52°F56°F59°F61°F63°F64°F64°F64°F63°F60°F58°F56°F56°F55°F55°F55°F56°F56°F56°F56°F57°F57°F58°F58°F59°F60°F62°F64°F63°F66°F67°F67°F64°F61°F58°F56°F55°F54°F53°F52°F51°F
Feels Like 33°F29°F33°F36°F38°F41°F45°F50°F53°F56°F59°F61°F62°F62°F63°F61°F58°F56°F54°F54°F53°F53°F54°F54°F54°F54°F55°F56°F57°F57°F58°F58°F59°F61°F64°F63°F65°F66°F66°F63°F60°F57°F55°F54°F53°F52°F51°F50°F
Cloudiness 10%0%4%6%7%9%8%13%11%32%45%44%100%100%100%100%100%100%100%100%100%100%100%100%100%100%100%98%99%98%95%97%98%99%95%96%42%48%35%29%27%23%29%33%24%18%15%13%
Visibility 6 mi6 mi6 mi6 mi6 mi6 mi6 mi6 mi6 mi6 mi6 mi6 mi6 mi6 mi6 mi6 mi6 mi6 mi6 mi6 mi6 mi6 mi6 mi6 mi6 mi6 mi6 mi6 mi6 mi5 mi6 mi6 mi6 mi6 mi6 mi6 mi6 mi6 mi6 mi6 mi6 mi6 mi6 mi6 mi6 mi6 mi6 mi6 mi
Precipitation 0%0%0%0%0%0%0%0%0%0%0%0%0%0%0%0%0%0%0%0%0%0%0%0%0%0%0%5%9%34%76%99%80%79%100%100%100%100%100%100%100%100%0%0%0%0%0%0%
Humidity 86%93%87%81%75%69%63%56%50%46%43%41%41%44%46%50%56%56%59%60%61%64%64%60%62%66%70%74%77%80%82%84%85%82%80%82%72%67%65%68%73%77%80%80%81%81%81%77%
Dew Point 33°F32°F33°F34°F34°F34°F36°F37°F37°F38°F38°F40°F40°F42°F43°F44°F44°F42°F42°F42°F42°F43°F43°F42°F43°F44°F47°F49°F50°F52°F53°F54°F55°F56°F57°F57°F56°F55°F54°F53°F52°F51°F50°F48°F48°F47°F46°F44°F
Pressure 30.18"30.18"30.18"30.18"30.15"30.18"30.15"30.15"30.12"30.09"30.06"30.03"29.97"29.94"29.91"29.91"29.88"29.88"29.88"29.88"29.85"29.83"29.8"29.77"29.77"29.74"29.68"29.65"29.65"29.65"29.62"29.65"29.62"29.59"29.59"29.56"29.53"29.53"29.5"29.53"29.59"29.62"29.65"29.68"29.71"29.71"29.71"29.74"
Wind Speed 4.8 mph4.8 mph3.9 mph4.2 mph5.4 mph5.4 mph6.4 mph7.6 mph9 mph10.2 mph11.2 mph11.9 mph11.9 mph11.2 mph11.1 mph9 mph8.6 mph13 mph12.8 mph13 mph13.5 mph14.6 mph15.8 mph17.6 mph16.5 mph16.2 mph16.8 mph17.7 mph18.6 mph19.1 mph18.5 mph19.4 mph19.6 mph20.6 mph21.2 mph19.2 mph19.8 mph16.7 mph13.7 mph17.2 mph12.9 mph13.4 mph9.3 mph7.5 mph7.9 mph8.5 mph9.7 mph10.8 mph
Wind
Direction
155°
SSE
169°
S
193°
SSW
193°
SSW
206°
SSW
209°
SSW
208°
SSW
197°
SSW
197°
SSW
209°
SSW
211°
SSW
218°
SW
220°
SW
220°
SW
212°
SSW
208°
SSW
188°
S
181°
S
188°
S
191°
S
193°
SSW
195°
SSW
202°
SSW
207°
SSW
209°
SSW
209°
SSW
205°
SSW
212°
SSW
215°
SW
219°
SW
217°
SW
222°
SW
218°
SW
223°
SW
227°
SW
237°
WSW
250°
WSW
257°
WSW
256°
WSW
311°
NW
327°
NNW
342°
NNW
349°
N
330°
NNW
315°
NW
300°
WNW
294°
WNW
293°
WNW

Daily Forecast

Date High Low Precip. Humidity
Today
Feb 22

Clouds
64 °F
34 °F
0%
43%
Friday
Feb 23

Rain
67 °F
53 °F
100%
80%
Saturday
Feb 24

Rain
61 °F
46 °F
52%
42%
Sunday
Feb 25

Clear
51 °F
37 °F
0%
48%
Monday
Feb 26

Clouds
65 °F
44 °F
0%
37%
Tuesday
Feb 27

Clouds
69 °F
52 °F
0%
41%
Wednesday
Feb 28

Clouds
73 °F
59 °F
0%
54%
Thursday
Feb 29

Rain
76 °F
59 °F
40%
59%
Friday
Mar 1

Clouds
56 °F
47 °F
3%
36%
Saturday
Mar 2

Clear
55 °F
37 °F
0%
29%
Sunday
Mar 3

Clear
59 °F
42 °F
0%
36%
Monday
Mar 4

Clear
63 °F
47 °F
0%
35%
Tuesday
Mar 5

Clear
68 °F
50 °F
0%
38%
Wednesday
Mar 6

Clear
69 °F
51 °F
0%
40%
Thursday
Mar 7

Clouds
68 °F
49 °F
0%
51%
Friday
Mar 8

Clouds
71 °F
55 °F
0%
52%

Temperature 8-14 Day Outlook



Precipitation 8-14 Day Outlook




Quick Links
Lake Marion News
Lake Marion Photos
Lake Marion Videos




About Us
Contact Us
Site Map
Search Site
Advertise With Us
   
Marion.USLakes.info
THE LAKE MARION WEBSITE

Copyright 2024, Lakes Online
Privacy    |    Legal